[ hide orbit diagram ]
For accurate long-term ephemerides, please instead use our Horizons system.This orbit viewer was implemented using two-body methods, and hence should not be used for determining accurate long-term trajectories (over several years or decades) or planetary encounter circumstances.
Orbital Elements at Epoch 2459200.5 (2020-Dec-17.0) TDB
Reference: JPL 35 (heliocentric ecliptic J2000)
Element | Value | Uncertainty (1-sigma) | Units |
e | .1506262028040956 | 2.9007e-08 | |
a | 2.55669329212922 | 8.574e-09 | au |
q | 2.171588289801093 | 7.3992e-08 | au |
i | 15.6965793501759 | 4.0996e-06 | deg |
node | 179.9126203876174 | 1.2445e-05 | deg |
peri | 84.6742995544664 | 1.9565e-05 | deg |
M | 61.55531110757139 | 1.4639e-05 | deg |
tp | 2458945.183192855837 (2020-Apr-05.68319286) | 6.0655e-05 | TDB |
period | 1493.194476935932 4.09 | 7.5113e-06 2.056e-08 | d yr |
n | .2410938464885887 | 1.2128e-09 | deg/d |
Q | 2.941798294457346 | 9.8655e-09 | au |
|
| | Orbit Determination Parameters
Additional Information
|
[ show covariance matrix ]
Physical Parameter Table
Parameter |
Symbol |
Value |
Units |
Sigma |
Reference |
Notes |
absolute magnitude |
H |
13.21 |
|
n/a |
E2021B10 |
|
diameter |
diameter |
7.014 |
km |
0.328 |
urn:nasa:pds:neowise_diameters_albedos::2.0[mainbelt] (http://adsabs.harvard.edu/abs/2011ApJ...741...68M) |
|
rotation period |
rot_per |
20.5142 |
h |
n/a |
LCDB (Rev. 2020-October); Warner et al., 2009 |
Result based on less than full coverage, so that the period may be wrong by 30 percent or so. Published Reference List: [Pal, A.; Szakats, R.; Kiss, C.; Bodi, A.; et al. (2019) Ap. J. Supl. Ser. 247, id.26.] |
geometric albedo |
albedo |
0.248 |
|
0.039 |
urn:nasa:pds:neowise_diameters_albedos::2.0[mainbelt] (http://adsabs.harvard.edu/abs/2011ApJ...741...68M) |
|
|
10332 Défi | Discovered 1991 May 13 by C. S. Shoemaker and D. H. Levy at Palomar. |
Défi Corporatif Canderel is a fundraising event for cancer research programs at universities in Montreal. Founded by Jonathan Wener, the event has been directed by Gerald Levy since its inception in 1990. It features a costumed run through the streets of Montreal and has raised more than three million dollars. |
NOTE: some special characters may not display properly (any characters within {} are an attempt to place the proper accent above a character) |
Reference: 19991123/MPCPages.arc | Last Updated: 2010-06-11 |
|
Alternate Designations
1991 JT1 = 1950 HP1 = 1995 JZ1 |
|
|